Time,TemperatureF,DewpointF,PressureIn,WindDirection,WindDirectionDegrees,WindSpeedMPH,WindSpeedGustMPH,Humidity,HourlyPrecipIn,Conditions,Clouds,dailyrainin,SoftwareType,DateUTC
2013-02-25 00:01:00,41.4,40.0,29.68,East,90,3.8,6.0,95,0.04,CLR,BKN,0.00,WeatherDisplay:10.37,2013-02-25 08:01:00,
2013-02-25 00:06:00,41.4,40.0,29.68,East,90,3.8,5.8,95,0.04,CLR,BKN,0.00,WeatherDisplay:10.37,2013-02-25 08:06:00,
2013-02-25 00:11:00,41.4,40.3,29.68,East,90,2.2,9.2,96,0.04,CLR,BKN,0.00,WeatherDisplay:10.37,2013-02-25 08:11:00,
2013-02-25 00:16:00,41.4,40.3,29.68,ESE,112,3.8,8.1,96,0.02,CLR,BKN,0.00,WeatherDisplay:10.37,2013-02-25 08:16:00,
2013-02-25 00:21:00,41.4,40.3,29.68,NE,45,3.1,10.3,96,0.02,CLR,BKN,0.00,WeatherDisplay:10.37,2013-02-25 08:21:00,
2013-02-25 00:26:00,41.4,40.3,29.68,SE,135,2.2,8.1,96,0.01,CLR,BKN,0.00,WeatherDisplay:10.37,2013-02-25 08:26:00,
2013-02-25 00:27:00,41.4,40.3,29.68,SE,135,5.4,8.1,96,0.05,RA,BKN,0.04,WeatherDisplay:10.37,2013-02-25 08:27:00,
2013-02-25 00:31:00,41.4,40.3,29.69,SE,135,3.1,6.9,96,0.02,RA,BKN,0.01,WeatherDisplay:10.37,2013-02-25 08:31:00,
2013-02-25 00:36:00,41.4,40.3,29.69,East,90,2.2,4.6,96,0.04,RA,BKN,0.02,WeatherDisplay:10.37,2013-02-25 08:36:00,
2013-02-25 01:01:00,41.0,39.7,29.67,SE,135,3.1,5.8,95,0.05,CLR,BKN,0.05,WeatherDisplay:10.37,2013-02-25 09:01:00,
2013-02-25 01:06:00,41.0,39.7,29.67,SE,135,3.1,4.6,95,0.05,CLR,BKN,0.05,WeatherDisplay:10.37,2013-02-25 09:06:00,
2013-02-25 01:11:00,40.8,39.5,29.67,SE,135,1.6,8.1,95,0.05,CLR,BKN,0.05,WeatherDisplay:10.37,2013-02-25 09:11:00,
2013-02-25 01:16:00,40.6,39.3,29.67,East,90,3.1,6.9,95,0.05,CLR,BKN,0.05,WeatherDisplay:10.37,2013-02-25 09:16:00,
2013-02-25 01:21:00,40.6,39.3,29.67,East,90,2.2,8.1,95,0.05,CLR,BKN,0.05,WeatherDisplay:10.37,2013-02-25 09:21:00,
2013-02-25 01:26:00,40.5,39.1,29.67,NW,315,3.1,8.1,95,0.05,CLR,BKN,0.05,WeatherDisplay:10.37,2013-02-25 09:26:00,
2013-02-25 01:27:00,40.3,39.0,29.66,NE,45,2.2,5.8,95,0.01,CLR,BKN,0.05,WeatherDisplay:10.37,2013-02-25 09:27:00,
2013-02-25 01:31:00,40.5,39.1,29.67,East,90,3.1,6.0,95,0.04,CLR,BKN,0.05,WeatherDisplay:10.37,2013-02-25 09:31:00,
2013-02-25 01:36:00,40.3,39.0,29.66,East,90,3.1,8.1,95,0.02,CLR,BKN,0.05,WeatherDisplay:10.37,2013-02-25 09:36:00,
2013-02-25 02:01:00,39.9,38.6,29.64,SE,135,1.6,3.8,95,0.00,CLR,BKN,0.05,WeatherDisplay:10.37,2013-02-25 10:01:00,
2013-02-25 02:06:00,39.9,38.6,29.64,SE,135,1.6,3.4,95,0.00,CLR,BKN,0.05,WeatherDisplay:10.37,2013-02-25 10:06:00,
2013-02-25 02:11:00,39.9,38.3,29.63,North,0,3.1,6.9,94,0.01,RA,BKN,0.06,WeatherDisplay:10.37,2013-02-25 10:11:00,
2013-02-25 02:16:00,40.1,38.5,29.63,SE,135,3.8,6.9,94,0.01,RA,BKN,0.06,WeatherDisplay:10.37,2013-02-25 10:16:00,
2013-02-25 02:21:00,40.1,38.2,29.62,SE,135,3.1,8.1,93,0.01,CLR,BKN,0.06,WeatherDisplay:10.37,2013-02-25 10:21:00,
2013-02-25 02:26:00,40.1,38.2,29.62,East,90,2.2,5.8,93,0.01,CLR,BKN,0.06,WeatherDisplay:10.37,2013-02-25 10:26:00,
2013-02-25 02:27:00,39.9,38.1,29.61,SE,135,1.6,5.8,93,0.01,CLR,BKN,0.06,WeatherDisplay:10.37,2013-02-25 10:27:00,
2013-02-25 02:31:00,40.1,38.2,29.62,SE,135,3.1,6.9,93,0.01,CLR,BKN,0.06,WeatherDisplay:10.37,2013-02-25 10:31:00,
2013-02-25 02:36:00,39.9,37.8,29.61,East,90,2.2,5.8,92,0.01,CLR,BKN,0.06,WeatherDisplay:10.37,2013-02-25 10:36:00,
2013-02-25 03:01:00,39.0,37.2,29.62,North,0,0.0,2.3,93,0.01,CLR,BKN,0.06,WeatherDisplay:10.37,2013-02-25 11:01:00,
2013-02-25 03:06:00,39.0,37.2,29.62,North,0,0.0,2.3,93,0.01,CLR,BKN,0.06,WeatherDisplay:10.37,2013-02-25 11:06:00,
2013-02-25 03:11:00,39.2,37.6,29.61,NE,45,3.1,5.8,94,0.00,CLR,BKN,0.06,WeatherDisplay:10.37,2013-02-25 11:11:00,
2013-02-25 03:16:00,39.6,37.4,29.61,East,90,3.1,9.2,92,0.00,CLR,BKN,0.06,WeatherDisplay:10.37,2013-02-25 11:16:00,
2013-02-25 03:21:00,39.6,37.4,29.60,ESE,112,1.6,3.4,92,0.00,CLR,BKN,0.06,WeatherDisplay:10.37,2013-02-25 11:21:00,
2013-02-25 03:26:00,40.5,36.9,29.59,South,180,3.8,8.3,87,0.00,CLR,BKN,0.06,WeatherDisplay:10.37,2013-02-25 11:26:00,
2013-02-25 03:27:00,40.6,36.5,29.61,North,0,2.2,5.8,85,0.00,CLR,BKN,0.06,WeatherDisplay:10.37,2013-02-25 11:27:00,
2013-02-25 03:31:00,40.3,36.4,29.59,SW,225,3.1,14.9,86,0.00,CLR,BKN,0.06,WeatherDisplay:10.37,2013-02-25 11:31:00,
2013-02-25 03:36:00,40.6,36.5,29.61,NW,315,1.6,6.9,85,0.00,CLR,BKN,0.06,WeatherDisplay:10.37,2013-02-25 11:36:00,
2013-02-25 04:01:00,40.5,35.4,29.61,East,90,3.1,6.0,82,0.00,CLR,BKN,0.06,WeatherDisplay:10.37,2013-02-25 12:01:00,
2013-02-25 04:06:00,40.5,35.4,29.61,East,90,3.1,6.0,82,0.00,CLR,BKN,0.06,WeatherDisplay:10.37,2013-02-25 12:06:00,
2013-02-25 04:11:00,40.6,35.3,29.60,East,90,1.6,9.2,81,0.00,CLR,BKN,0.06,WeatherDisplay:10.37,2013-02-25 12:11:00,
2013-02-25 04:16:00,40.8,35.1,29.60,North,0,1.6,8.1,80,0.00,CLR,BKN,0.06,WeatherDisplay:10.37,2013-02-25 12:16:00,
2013-02-25 04:21:00,40.6,35.0,29.61,SE,135,4.5,8.1,80,0.00,CLR,BKN,0.06,WeatherDisplay:10.37,2013-02-25 12:21:00,
2013-02-25 04:26:00,40.8,35.1,29.62,East,90,1.6,5.8,80,0.00,CLR,BKN,0.06,WeatherDisplay:10.37,2013-02-25 12:26:00,
2013-02-25 04:27:00,40.5,35.4,29.61,SE,135,4.5,5.8,82,0.00,CLR,BKN,0.06,WeatherDisplay:10.37,2013-02-25 12:27:00,
2013-02-25 04:31:00,40.8,35.4,29.62,NE,45,3.1,6.9,81,0.00,CLR,BKN,0.06,WeatherDisplay:10.37,2013-02-25 12:31:00,
2013-02-25 04:36:00,40.6,35.6,29.61,SE,135,3.1,6.9,82,0.00,CLR,BKN,0.06,WeatherDisplay:10.37,2013-02-25 12:36:00,
2013-02-25 05:01:00,40.8,35.1,29.62,East,90,2.2,6.9,80,0.00,CLR,BKN,0.06,WeatherDisplay:10.37,2013-02-25 13:01:00,
2013-02-25 05:06:00,40.8,35.1,29.61,East,90,2.2,5.8,80,0.00,CLR,BKN,0.06,WeatherDisplay:10.37,2013-02-25 13:06:00,
2013-02-25 05:11:00,40.6,35.6,29.62,SE,135,1.6,3.4,82,0.00,CLR,BKN,0.06,WeatherDisplay:10.37,2013-02-25 13:11:00,
2013-02-25 05:16:00,40.6,35.3,29.61,South,180,1.6,8.1,81,0.00,CLR,BKN,0.06,WeatherDisplay:10.37,2013-02-25 13:16:00,
2013-02-25 05:21:00,40.5,35.7,29.61,East,90,1.6,4.6,83,0.00,CLR,BKN,0.06,WeatherDisplay:10.37,2013-02-25 13:21:00,
2013-02-25 05:26:00,40.1,35.7,29.60,SE,135,3.8,6.9,84,0.00,CLR,BKN,0.06,WeatherDisplay:10.37,2013-02-25 13:26:00,
2013-02-25 05:27:00,39.9,35.8,29.62,SE,135,1.6,5.8,85,0.00,CLR,BKN,0.06,WeatherDisplay:10.37,2013-02-25 13:27:00,
2013-02-25 05:31:00,40.1,35.7,29.61,North,0,0.0,5.8,84,0.00,CLR,BKN,0.06,WeatherDisplay:10.37,2013-02-25 13:31:00,
2013-02-25 05:36:00,39.9,35.8,29.62,East,90,2.2,5.8,85,0.00,CLR,BKN,0.06,WeatherDisplay:10.37,2013-02-25 13:36:00,
2013-02-25 06:01:00,39.4,35.8,29.61,East,90,0.7,3.4,87,0.00,CLR,BKN,0.06,WeatherDisplay:10.37,2013-02-25 14:01:00,
2013-02-25 06:06:00,39.4,35.8,29.61,SE,135,1.6,3.4,87,0.00,CLR,BKN,0.06,WeatherDisplay:10.37,2013-02-25 14:06:00,
2013-02-25 06:11:00,39.6,36.0,29.61,SE,135,1.6,3.8,87,0.00,CLR,BKN,0.06,WeatherDisplay:10.37,2013-02-25 14:11:00,
2013-02-25 06:16:00,39.6,35.7,29.61,SE,135,2.2,6.9,86,0.00,CLR,BKN,0.06,WeatherDisplay:10.37,2013-02-25 14:16:00,
2013-02-25 06:21:00,39.7,35.9,29.61,East,90,0.7,3.4,86,0.00,CLR,BKN,0.06,WeatherDisplay:10.37,2013-02-25 14:21:00,
2013-02-25 06:26:00,39.7,35.9,29.62,SW,225,0.0,3.4,86,0.00,CLR,BKN,0.06,WeatherDisplay:10.37,2013-02-25 14:26:00,
2013-02-25 06:27:00,39.7,35.6,29.62,East,90,0.7,3.4,85,0.00,CLR,BKN,0.06,WeatherDisplay:10.37,2013-02-25 14:27:00,
2013-02-25 06:31:00,39.7,35.9,29.62,South,180,1.6,3.4,86,0.00,CLR,BKN,0.06,WeatherDisplay:10.37,2013-02-25 14:31:00,
2013-02-25 06:36:00,39.7,35.6,29.62,NE,45,0.7,3.4,85,0.00,CLR,BKN,0.06,WeatherDisplay:10.37,2013-02-25 14:36:00,
2013-02-25 07:01:00,39.6,35.7,29.63,North,0,0.7,3.4,86,0.00,CLR,BKN,0.06,WeatherDisplay:10.37,2013-02-25 15:01:00,
2013-02-25 07:06:00,39.9,36.1,29.63,West,270,1.6,4.6,86,0.00,CLR,BKN,0.06,WeatherDisplay:10.37,2013-02-25 15:06:00,
2013-02-25 07:11:00,40.1,36.0,29.64,North,0,3.8,8.3,85,0.00,CLR,BKN,0.06,WeatherDisplay:10.37,2013-02-25 15:11:00,
2013-02-25 07:16:00,40.3,35.8,29.64,NW,315,1.6,3.4,84,0.00,CLR,BKN,0.06,WeatherDisplay:10.37,2013-02-25 15:16:00,
2013-02-25 07:21:00,40.3,35.8,29.65,NW,315,1.6,3.4,84,0.00,CLR,BKN,0.06,WeatherDisplay:10.37,2013-02-25 15:21:00,
2013-02-25 07:26:00,40.6,35.9,29.65,West,270,3.8,9.2,83,0.00,CLR,BKN,0.06,WeatherDisplay:10.37,2013-02-25 15:26:00,
2013-02-25 07:27:00,41.4,36.0,29.66,West,270,3.8,8.1,81,0.00,CLR,BKN,0.06,WeatherDisplay:10.37,2013-02-25 15:27:00,
2013-02-25 07:31:00,40.8,35.7,29.65,West,270,3.8,6.9,82,0.00,CLR,BKN,0.06,WeatherDisplay:10.37,2013-02-25 15:31:00,
2013-02-25 07:36:00,41.2,35.8,29.66,West,270,3.1,8.1,81,0.00,CLR,BKN,0.06,WeatherDisplay:10.37,2013-02-25 15:36:00,
2013-02-25 08:01:00,42.4,35.7,29.69,NW,315,5.4,9.2,77,0.00,CLR,BKN,0.06,WeatherDisplay:10.37,2013-02-25 16:01:00,
2013-02-25 08:06:00,42.3,35.9,29.70,West,270,2.2,9.2,78,0.00,CLR,BKN,0.06,WeatherDisplay:10.37,2013-02-25 16:06:00,
2013-02-25 08:11:00,42.3,36.2,29.70,NW,315,3.1,6.0,79,0.00,CLR,BKN,0.06,WeatherDisplay:10.37,2013-02-25 16:11:00,
2013-02-25 08:16:00,42.3,36.5,29.71,NW,315,2.2,10.3,80,0.00,CLR,BKN,0.06,WeatherDisplay:10.37,2013-02-25 16:16:00,
2013-02-25 08:21:00,42.3,36.5,29.72,West,270,3.8,5.8,80,0.00,CLR,BKN,0.06,WeatherDisplay:10.37,2013-02-25 16:21:00,
2013-02-25 08:26:00,42.3,36.5,29.73,NW,315,6.9,12.6,80,0.00,CLR,BKN,0.06,WeatherDisplay:10.37,2013-02-25 16:26:00,
2013-02-25 08:27:00,42.3,36.2,29.74,West,270,5.4,10.3,79,0.00,CLR,BKN,0.06,WeatherDisplay:10.37,2013-02-25 16:27:00,
2013-02-25 08:31:00,42.3,36.2,29.73,SW,225,6.0,14.9,79,0.00,CLR,BKN,0.06,WeatherDisplay:10.37,2013-02-25 16:31:00,
2013-02-25 08:36:00,42.3,36.2,29.74,West,270,6.9,13.8,79,0.00,CLR,BKN,0.06,WeatherDisplay:10.37,2013-02-25 16:36:00,
2013-02-25 09:01:00,41.9,36.8,29.75,West,270,4.5,8.3,82,0.00,CLR,BKN,0.06,WeatherDisplay:10.37,2013-02-25 17:01:00,
2013-02-25 09:06:00,41.9,36.8,29.75,West,270,1.6,10.3,82,0.00,CLR,BKN,0.06,WeatherDisplay:10.37,2013-02-25 17:06:00,
2013-02-25 09:11:00,41.9,36.8,29.76,West,270,1.6,8.1,82,0.00,CLR,BKN,0.06,WeatherDisplay:10.37,2013-02-25 17:11:00,
2013-02-25 09:16:00,41.9,36.8,29.76,West,270,2.2,6.0,82,0.00,CLR,BKN,0.06,WeatherDisplay:10.37,2013-02-25 17:16:00,
2013-02-25 09:21:00,42.1,37.0,29.77,West,270,0.7,3.4,82,0.00,CLR,BKN,0.06,WeatherDisplay:10.37,2013-02-25 17:21:00,
2013-02-25 09:26:00,42.1,37.0,29.77,West,270,0.7,2.3,82,0.00,CLR,BKN,0.06,WeatherDisplay:10.37,2013-02-25 17:26:00,
2013-02-25 09:27:00,42.6,37.5,29.78,West,270,1.6,3.4,82,0.00,CLR,BKN,0.06,WeatherDisplay:10.37,2013-02-25 17:27:00,
2013-02-25 09:31:00,42.3,37.2,29.77,West,270,0.7,1.1,82,0.00,CLR,BKN,0.06,WeatherDisplay:10.37,2013-02-25 17:31:00,
2013-02-25 09:36:00,42.6,37.5,29.77,West,270,2.2,4.6,82,0.00,CLR,BKN,0.06,WeatherDisplay:10.37,2013-02-25 17:36:00,
2013-02-25 10:01:00,43.9,38.1,29.79,NW,315,3.1,9.2,80,0.00,CLR,BKN,0.06,WeatherDisplay:10.37,2013-02-25 18:01:00,
2013-02-25 10:06:00,44.4,38.3,29.80,WNW,292,0.7,4.6,79,0.00,CLR,BKN,0.06,WeatherDisplay:10.37,2013-02-25 18:06:00,
2013-02-25 10:11:00,44.6,38.2,29.80,WNW,292,1.6,10.3,78,0.00,CLR,BKN,0.06,WeatherDisplay:10.37,2013-02-25 18:11:00,
2013-02-25 10:16:00,44.8,38.0,29.80,NW,315,4.5,8.1,77,0.00,CLR,BKN,0.06,WeatherDisplay:10.37,2013-02-25 18:16:00,
2013-02-25 10:21:00,45.5,38.7,29.81,SW,225,1.6,5.8,77,0.00,CLR,BKN,0.06,WeatherDisplay:10.37,2013-02-25 18:21:00,
2013-02-25 10:26:00,47.5,40.3,29.81,West,270,3.8,9.2,76,0.00,CLR,BKN,0.06,WeatherDisplay:10.37,2013-02-25 18:26:00,
2013-02-25 10:27:00,50.0,39.8,29.81,SE,135,3.1,9.2,68,0.00,CLR,BKN,0.06,WeatherDisplay:10.37,2013-02-25 18:27:00,
2013-02-25 10:31:00,48.9,41.0,29.81,West,270,2.2,4.6,74,0.00,CLR,BKN,0.06,WeatherDisplay:10.37,2013-02-25 18:31:00,
2013-02-25 10:36:00,49.8,40.1,29.81,NW,315,2.2,10.3,69,0.00,CLR,BKN,0.06,WeatherDisplay:10.37,2013-02-25 18:36:00,
2013-02-25 11:01:00,54.9,39.5,29.83,West,270,3.1,9.2,56,0.00,CLR,BKN,0.06,WeatherDisplay:10.37,2013-02-25 19:01:00,
2013-02-25 11:06:00,55.9,37.6,29.83,NW,315,2.2,8.1,50,0.00,CLR,BKN,0.06,WeatherDisplay:10.37,2013-02-25 19:06:00,
2013-02-25 11:11:00,55.8,36.9,29.83,NW,315,2.2,5.8,49,0.00,CLR,BKN,0.06,WeatherDisplay:10.37,2013-02-25 19:11:00,
2013-02-25 11:16:00,54.5,38.7,29.83,NW,315,3.8,8.1,55,0.00,CLR,BKN,0.06,WeatherDisplay:10.37,2013-02-25 19:16:00,
2013-02-25 11:21:00,53.1,39.1,29.84,North,0,6.0,9.2,59,0.00,CLR,BKN,0.06,WeatherDisplay:10.37,2013-02-25 19:21:00,
2013-02-25 11:26:00,51.4,39.7,29.84,SE,135,1.6,5.8,64,0.00,CLR,BKN,0.06,WeatherDisplay:10.37,2013-02-25 19:26:00,
2013-02-25 11:27:00,49.1,38.6,29.85,NW,315,0.7,6.9,67,0.00,CLR,BKN,0.06,WeatherDisplay:10.37,2013-02-25 19:27:00,
2013-02-25 11:31:00,51.1,39.3,29.85,NE,45,3.1,8.1,64,0.00,CLR,BKN,0.06,WeatherDisplay:10.37,2013-02-25 19:31:00,
2013-02-25 11:36:00,49.6,38.3,29.85,NW,315,2.2,6.9,65,0.00,CLR,BKN,0.06,WeatherDisplay:10.37,2013-02-25 19:36:00,
2013-02-25 12:01:00,48.0,38.0,29.86,North,0,1.6,3.8,68,0.00,CLR,BKN,0.06,WeatherDisplay:10.37,2013-02-25 20:01:00,
2013-02-25 12:06:00,48.6,38.5,29.86,North,0,0.7,3.8,68,0.00,CLR,BKN,0.06,WeatherDisplay:10.37,2013-02-25 20:06:00,
2013-02-25 12:11:00,48.7,38.3,29.87,NW,315,2.2,4.6,67,0.00,CLR,BKN,0.06,WeatherDisplay:10.37,2013-02-25 20:11:00,
2013-02-25 12:16:00,48.4,38.3,29.87,East,90,0.7,5.8,68,0.00,CLR,BKN,0.06,WeatherDisplay:10.37,2013-02-25 20:16:00,
2013-02-25 12:21:00,48.4,37.9,29.87,NW,315,1.6,5.8,67,0.00,CLR,BKN,0.06,WeatherDisplay:10.37,2013-02-25 20:21:00,
2013-02-25 12:26:00,48.7,37.9,29.88,NW,315,3.1,9.2,66,0.00,CLR,BKN,0.06,WeatherDisplay:10.37,2013-02-25 20:26:00,
2013-02-25 12:27:00,49.1,38.2,29.88,NW,315,3.8,8.1,66,0.00,CLR,BKN,0.06,WeatherDisplay:10.37,2013-02-25 20:27:00,
2013-02-25 12:31:00,48.4,36.8,29.88,North,0,3.1,8.1,64,0.00,CLR,BKN,0.06,WeatherDisplay:10.37,2013-02-25 20:31:00,
2013-02-25 12:36:00,49.1,38.6,29.88,West,270,3.8,8.1,67,0.00,CLR,BKN,0.06,WeatherDisplay:10.37,2013-02-25 20:36:00,
2013-02-25 13:01:00,46.8,36.8,29.89,North,0,2.2,8.1,68,0.00,CLR,BKN,0.06,WeatherDisplay:10.37,2013-02-25 21:01:00,
2013-02-25 13:06:00,46.8,37.1,29.89,NW,315,2.2,5.8,69,0.00,CLR,BKN,0.06,WeatherDisplay:10.37,2013-02-25 21:06:00,
2013-02-25 13:11:00,46.8,36.8,29.90,SW,225,2.2,5.8,68,0.00,CLR,BKN,0.06,WeatherDisplay:10.37,2013-02-25 21:11:00,
2013-02-25 13:16:00,46.9,37.3,29.90,North,0,2.2,4.6,69,0.00,CLR,BKN,0.06,WeatherDisplay:10.37,2013-02-25 21:16:00,
2013-02-25 13:21:00,47.3,36.9,29.90,North,0,3.8,8.1,67,0.00,CLR,BKN,0.06,WeatherDisplay:10.37,2013-02-25 21:21:00,
2013-02-25 13:26:00,47.3,36.9,29.91,West,270,2.2,4.6,67,0.00,CLR,BKN,0.06,WeatherDisplay:10.37,2013-02-25 21:26:00,
2013-02-25 13:27:00,47.5,36.3,29.91,SW,225,5.4,11.5,65,0.00,CLR,BKN,0.06,WeatherDisplay:10.37,2013-02-25 21:27:00,
2013-02-25 13:31:00,47.1,36.3,29.91,NW,315,5.4,9.2,66,0.00,CLR,BKN,0.06,WeatherDisplay:10.37,2013-02-25 21:31:00,
2013-02-25 13:36:00,47.5,36.7,29.91,SW,225,1.6,8.1,66,0.00,CLR,BKN,0.06,WeatherDisplay:10.37,2013-02-25 21:36:00,
2013-02-25 14:01:00,47.7,34.9,29.93,West,270,3.8,6.9,61,0.00,CLR,BKN,0.06,WeatherDisplay:10.37,2013-02-25 22:01:00,
2013-02-25 14:06:00,47.3,34.5,29.93,NW,315,6.0,12.6,61,0.00,CLR,BKN,0.06,WeatherDisplay:10.37,2013-02-25 22:06:00,
2013-02-25 14:11:00,47.3,34.5,29.93,North,0,2.2,6.9,61,0.00,CLR,BKN,0.06,WeatherDisplay:10.37,2013-02-25 22:11:00,
2013-02-25 14:16:00,47.3,34.1,29.93,North,0,5.4,9.2,60,0.00,CLR,BKN,0.06,WeatherDisplay:10.37,2013-02-25 22:16:00,
2013-02-25 14:21:00,47.3,34.1,29.93,SW,225,1.6,3.4,60,0.00,CLR,BKN,0.06,WeatherDisplay:10.37,2013-02-25 22:21:00,
2013-02-25 14:26:00,47.3,32.4,29.94,NW,315,5.4,10.3,56,0.00,CLR,BKN,0.06,WeatherDisplay:10.37,2013-02-25 22:26:00,
2013-02-25 14:27:00,47.1,32.2,29.95,SW,225,5.4,11.5,56,0.00,CLR,BKN,0.06,WeatherDisplay:10.37,2013-02-25 22:27:00,
2013-02-25 14:31:00,46.9,32.5,29.94,West,270,3.8,10.3,57,0.00,CLR,BKN,0.06,WeatherDisplay:10.37,2013-02-25 22:31:00,
2013-02-25 14:36:00,47.1,32.7,29.94,West,270,2.2,5.8,57,0.00,CLR,BKN,0.06,WeatherDisplay:10.37,2013-02-25 22:36:00,
2013-02-25 15:01:00,47.3,31.0,29.96,NW,315,5.4,10.3,53,0.00,CLR,BKN,0.06,WeatherDisplay:10.37,2013-02-25 23:01:00,
2013-02-25 15:06:00,47.1,30.9,29.96,West,270,3.1,6.0,53,0.00,CLR,BKN,0.06,WeatherDisplay:10.37,2013-02-25 23:06:00,
2013-02-25 15:11:00,47.1,30.9,29.95,SW,225,3.8,10.3,53,0.00,CLR,BKN,0.06,WeatherDisplay:10.37,2013-02-25 23:11:00,
2013-02-25 15:16:00,46.9,30.2,29.96,North,0,2.2,12.6,52,0.00,CLR,BKN,0.06,WeatherDisplay:10.37,2013-02-25 23:16:00,
2013-02-25 15:21:00,46.8,30.0,29.96,NW,315,3.1,5.8,52,0.00,CLR,BKN,0.06,WeatherDisplay:10.37,2013-02-25 23:21:00,
2013-02-25 15:26:00,46.8,30.0,29.97,West,270,1.6,8.1,52,0.00,CLR,BKN,0.06,WeatherDisplay:10.37,2013-02-25 23:26:00,
2013-02-25 15:27:00,46.2,29.1,29.97,South,180,3.1,10.3,51,0.00,CLR,BKN,0.06,WeatherDisplay:10.37,2013-02-25 23:27:00,
2013-02-25 15:31:00,46.6,29.4,29.97,East,90,1.6,8.1,51,0.00,CLR,BKN,0.06,WeatherDisplay:10.37,2013-02-25 23:31:00,
2013-02-25 15:36:00,46.2,29.1,29.97,NW,315,5.4,10.3,51,0.00,CLR,BKN,0.06,WeatherDisplay:10.37,2013-02-25 23:36:00,
2013-02-25 16:01:00,46.6,28.4,29.99,West,270,4.5,11.5,49,0.00,CLR,BKN,0.06,WeatherDisplay:10.37,2013-02-26 00:01:00,
2013-02-25 16:06:00,46.6,28.9,29.99,NW,315,4.5,9.2,50,0.00,CLR,BKN,0.06,WeatherDisplay:10.37,2013-02-26 00:06:00,
2013-02-25 16:11:00,46.2,28.1,29.99,West,270,5.4,10.3,49,0.00,CLR,BKN,0.06,WeatherDisplay:10.37,2013-02-26 00:11:00,
2013-02-25 16:16:00,46.0,27.9,29.99,WSW,248,2.2,10.3,49,0.00,CLR,BKN,0.06,WeatherDisplay:10.37,2013-02-26 00:16:00,
2013-02-25 16:21:00,45.9,27.8,30.00,West,270,4.5,9.2,49,0.00,CLR,BKN,0.06,WeatherDisplay:10.37,2013-02-26 00:21:00,
2013-02-25 16:26:00,45.7,28.1,30.00,NW,315,6.0,10.3,50,0.00,CLR,BKN,0.06,WeatherDisplay:10.37,2013-02-26 00:26:00,
2013-02-25 16:27:00,45.3,28.2,30.01,NW,315,1.6,8.1,51,0.00,CLR,BKN,0.06,WeatherDisplay:10.37,2013-02-26 00:27:00,
2013-02-25 16:31:00,45.5,28.4,30.00,SW,225,1.6,5.8,51,0.00,CLR,BKN,0.06,WeatherDisplay:10.37,2013-02-26 00:31:00,
2013-02-25 16:36:00,45.5,28.4,30.00,West,270,3.8,8.1,51,0.00,CLR,BKN,0.06,WeatherDisplay:10.37,2013-02-26 00:36:00,
2013-02-25 17:01:00,44.6,27.1,30.01,West,270,3.1,6.0,50,0.00,CLR,BKN,0.06,WeatherDisplay:10.37,2013-02-26 01:01:00,
2013-02-25 17:06:00,44.4,27.4,30.01,West,270,1.6,3.4,51,0.00,CLR,BKN,0.06,WeatherDisplay:10.37,2013-02-26 01:06:00,
2013-02-25 17:11:00,44.2,28.2,30.02,NW,315,0.7,3.8,53,0.00,CLR,BKN,0.06,WeatherDisplay:10.37,2013-02-26 01:11:00,
2013-02-25 17:16:00,44.1,28.0,30.02,South,180,0.7,2.3,53,0.00,CLR,BKN,0.06,WeatherDisplay:10.37,2013-02-26 01:16:00,
2013-02-25 17:21:00,43.5,28.4,30.02,South,180,0.0,2.3,55,0.00,CLR,BKN,0.06,WeatherDisplay:10.37,2013-02-26 01:21:00,
2013-02-25 17:26:00,43.2,28.5,30.02,SW,225,0.7,1.6,56,0.00,CLR,BKN,0.06,WeatherDisplay:10.37,2013-02-26 01:26:00,
2013-02-25 17:27:00,41.9,28.6,30.03,South,180,0.0,2.3,59,0.00,CLR,BKN,0.06,WeatherDisplay:10.37,2013-02-26 01:27:00,
2013-02-25 17:31:00,42.6,28.9,30.02,South,180,0.0,1.1,58,0.00,CLR,BKN,0.06,WeatherDisplay:10.37,2013-02-26 01:31:00,
2013-02-25 17:36:00,42.1,28.8,30.03,South,180,0.7,2.3,59,0.00,CLR,BKN,0.06,WeatherDisplay:10.37,2013-02-26 01:36:00,
2013-02-25 18:01:00,39.9,28.3,30.03,SW,225,0.0,2.3,63,0.00,CLR,BKN,0.06,WeatherDisplay:10.37,2013-02-26 02:01:00,
2013-02-25 18:06:00,39.7,28.2,30.04,SW,225,0.0,1.1,63,0.00,CLR,BKN,0.06,WeatherDisplay:10.37,2013-02-26 02:06:00,
2013-02-25 18:11:00,39.2,28.0,30.04,SW,225,0.0,1.1,64,0.00,CLR,BKN,0.06,WeatherDisplay:10.37,2013-02-26 02:11:00,
2013-02-25 18:16:00,38.7,27.9,30.04,SW,225,0.0,1.1,65,0.00,CLR,BKN,0.06,WeatherDisplay:10.37,2013-02-26 02:16:00,
2013-02-25 18:21:00,38.1,27.8,30.04,West,270,0.0,1.1,66,0.00,CLR,BKN,0.06,WeatherDisplay:10.37,2013-02-26 02:21:00,
2013-02-25 18:26:00,37.6,27.6,30.05,West,270,0.0,1.6,67,0.00,CLR,BKN,0.06,WeatherDisplay:10.37,2013-02-26 02:26:00,
2013-02-25 18:27:00,37.4,27.8,30.06,West,270,0.7,2.3,68,0.00,CLR,BKN,0.06,WeatherDisplay:10.37,2013-02-26 02:27:00,
2013-02-25 18:31:00,37.4,27.8,30.05,West,270,0.0,1.1,68,0.00,CLR,BKN,0.06,WeatherDisplay:10.37,2013-02-26 02:31:00,
2013-02-25 18:36:00,37.4,27.8,30.06,West,270,0.7,2.3,68,0.00,CLR,BKN,0.06,WeatherDisplay:10.37,2013-02-26 02:36:00,
2013-02-25 19:01:00,38.8,28.8,30.07,NW,315,1.6,4.6,67,0.00,CLR,BKN,0.06,WeatherDisplay:10.37,2013-02-26 03:01:00,
2013-02-25 19:06:00,38.8,28.8,30.07,NW,315,1.6,3.4,67,0.00,CLR,BKN,0.06,WeatherDisplay:10.37,2013-02-26 03:06:00,
2013-02-25 19:11:00,39.4,29.3,30.08,West,270,2.2,4.6,67,0.00,CLR,BKN,0.06,WeatherDisplay:10.37,2013-02-26 03:11:00,
2013-02-25 19:16:00,39.4,29.3,30.08,NW,315,2.2,4.6,67,0.00,CLR,BKN,0.06,WeatherDisplay:10.37,2013-02-26 03:16:00,
2013-02-25 19:21:00,39.4,29.3,30.08,NW,315,0.7,3.4,67,0.00,CLR,BKN,0.06,WeatherDisplay:10.37,2013-02-26 03:21:00,
2013-02-25 19:26:00,39.2,29.2,30.08,West,270,0.7,4.6,67,0.00,CLR,BKN,0.06,WeatherDisplay:10.37,2013-02-26 03:26:00,
2013-02-25 19:27:00,39.6,29.5,30.09,East,90,2.2,5.8,67,0.00,CLR,BKN,0.06,WeatherDisplay:10.37,2013-02-26 03:27:00,
2013-02-25 19:31:00,39.2,29.2,30.08,NW,315,2.2,4.6,67,0.00,CLR,BKN,0.06,WeatherDisplay:10.37,2013-02-26 03:31:00,
2013-02-25 19:36:00,39.6,29.5,30.08,WSW,248,3.8,5.8,67,0.00,CLR,BKN,0.06,WeatherDisplay:10.37,2013-02-26 03:36:00,
2013-02-25 20:01:00,39.7,29.7,30.09,NE,45,1.6,4.6,67,0.00,CLR,BKN,0.06,WeatherDisplay:10.37,2013-02-26 04:01:00,
2013-02-25 20:06:00,39.7,29.7,30.10,NE,45,1.6,4.6,67,0.00,CLR,BKN,0.06,WeatherDisplay:10.37,2013-02-26 04:06:00,
2013-02-25 20:11:00,39.7,29.7,30.10,West,270,2.2,5.8,67,0.00,CLR,BKN,0.06,WeatherDisplay:10.37,2013-02-26 04:11:00,
2013-02-25 20:16:00,39.7,29.7,30.10,West,270,3.1,5.8,67,0.00,CLR,BKN,0.06,WeatherDisplay:10.37,2013-02-26 04:16:00,
2013-02-25 20:21:00,39.9,29.8,30.11,West,270,1.6,5.8,67,0.00,CLR,BKN,0.06,WeatherDisplay:10.37,2013-02-26 04:21:00,
2013-02-25 20:26:00,39.7,29.7,30.11,South,180,0.0,3.4,67,0.00,CLR,BKN,0.06,WeatherDisplay:10.37,2013-02-26 04:26:00,
2013-02-25 20:27:00,38.5,29.2,30.12,South,180,0.0,2.3,69,0.00,CLR,BKN,0.06,WeatherDisplay:10.37,2013-02-26 04:27:00,
2013-02-25 20:31:00,39.2,29.5,30.11,SE,135,0.0,1.1,68,0.00,CLR,BKN,0.06,WeatherDisplay:10.37,2013-02-26 04:31:00,
2013-02-25 20:36:00,38.5,29.2,30.11,South,180,0.0,2.3,69,0.00,CLR,BKN,0.06,WeatherDisplay:10.37,2013-02-26 04:36:00,
2013-02-25 21:01:00,38.1,29.9,30.11,West,270,0.7,2.3,72,0.00,CLR,BKN,0.06,WeatherDisplay:10.37,2013-02-26 05:01:00,
2013-02-25 21:06:00,38.1,29.9,30.11,West,270,0.7,2.3,72,0.00,CLR,BKN,0.06,WeatherDisplay:10.37,2013-02-26 05:06:00,
2013-02-25 21:11:00,38.3,29.7,30.12,East,90,0.0,1.1,71,0.00,CLR,BKN,0.06,WeatherDisplay:10.37,2013-02-26 05:11:00,
2013-02-25 21:16:00,37.6,29.4,30.12,SE,135,0.0,1.1,72,0.00,CLR,BKN,0.06,WeatherDisplay:10.37,2013-02-26 05:16:00,
2013-02-25 21:21:00,36.9,28.7,30.13,West,270,0.0,1.1,72,0.00,CLR,BKN,0.06,WeatherDisplay:10.37,2013-02-26 05:21:00,
2013-02-25 21:26:00,36.1,28.3,30.12,West,270,0.0,1.1,73,0.00,CLR,BKN,0.06,WeatherDisplay:10.37,2013-02-26 05:26:00,
2013-02-25 21:27:00,35.4,28.3,30.12,SW,225,0.0,1.1,75,0.00,CLR,BKN,0.06,WeatherDisplay:10.37,2013-02-26 05:27:00,
2013-02-25 21:31:00,35.8,28.3,30.12,NW,315,0.0,1.1,74,0.00,CLR,BKN,0.06,WeatherDisplay:10.37,2013-02-26 05:31:00,
2013-02-25 21:36:00,35.4,28.3,30.12,West,270,0.0,1.6,75,0.00,CLR,BKN,0.06,WeatherDisplay:10.37,2013-02-26 05:36:00,
2013-02-25 22:01:00,34.2,28.0,30.13,NE,45,0.0,0.0,78,0.00,CLR,BKN,0.06,WeatherDisplay:10.37,2013-02-26 06:01:00,
2013-02-25 22:06:00,34.2,28.0,30.13,NE,45,0.0,0.0,78,0.00,CLR,BKN,0.06,WeatherDisplay:10.37,2013-02-26 06:06:00,
2013-02-25 22:11:00,33.3,27.5,30.13,NE,45,0.0,0.0,79,0.00,CLR,BKN,0.06,WeatherDisplay:10.37,2013-02-26 06:11:00,
2013-02-25 22:16:00,32.7,27.2,30.14,NE,45,0.0,0.0,80,0.00,CLR,BKN,0.06,WeatherDisplay:10.37,2013-02-26 06:16:00,
2013-02-25 22:21:00,32.4,26.9,30.14,SW,225,0.0,0.0,80,0.00,CLR,BKN,0.06,WeatherDisplay:10.37,2013-02-26 06:21:00,
2013-02-25 22:26:00,32.0,26.8,30.14,SW,225,0.0,1.1,81,0.00,CLR,BKN,0.06,WeatherDisplay:10.37,2013-02-26 06:26:00,
2013-02-25 22:27:00,31.8,27.2,30.14,West,270,0.0,0.0,83,0.00,CLR,BKN,0.06,WeatherDisplay:10.37,2013-02-26 06:27:00,
2013-02-25 22:31:00,32.0,27.4,30.14,SW,225,0.0,1.1,83,0.00,CLR,BKN,0.06,WeatherDisplay:10.37,2013-02-26 06:31:00,
2013-02-25 22:36:00,31.8,27.2,30.14,West,270,0.0,1.1,83,0.00,CLR,BKN,0.06,WeatherDisplay:10.37,2013-02-26 06:36:00,
2013-02-25 23:01:00,31.3,27.0,30.14,NW,315,0.0,1.1,84,0.00,CLR,BKN,0.06,WeatherDisplay:10.37,2013-02-26 07:01:00,
2013-02-25 23:06:00,31.3,27.0,30.14,NW,315,0.0,1.1,84,0.00,CLR,BKN,0.06,WeatherDisplay:10.37,2013-02-26 07:06:00,
2013-02-25 23:11:00,30.7,26.5,30.14,NW,315,0.0,1.1,84,0.00,CLR,BKN,0.06,WeatherDisplay:10.37,2013-02-26 07:11:00,
2013-02-25 23:16:00,30.7,26.8,30.14,West,270,0.0,1.1,85,0.00,CLR,BKN,0.06,WeatherDisplay:10.37,2013-02-26 07:16:00,
2013-02-25 23:21:00,30.6,26.6,30.14,West,270,0.0,1.1,85,0.00,CLR,BKN,0.06,WeatherDisplay:10.37,2013-02-26 07:21:00,
2013-02-25 23:26:00,30.6,26.6,30.15,West,270,0.0,1.1,85,0.00,CLR,BKN,0.06,WeatherDisplay:10.37,2013-02-26 07:26:00,
2013-02-25 23:27:00,30.9,27.2,30.15,NW,315,0.0,1.1,86,0.00,CLR,BKN,0.06,WeatherDisplay:10.37,2013-02-26 07:27:00,
2013-02-25 23:31:00,30.6,26.6,30.15,West,270,0.7,1.6,85,0.00,CLR,BKN,0.06,WeatherDisplay:10.37,2013-02-26 07:31:00,
2013-02-25 23:36:00,30.9,27.2,30.15,NW,315,0.0,1.1,86,0.00,CLR,BKN,0.06,WeatherDisplay:10.37,2013-02-26 07:36:00,